Location: Praha
(50.0830°N, 14.4670°E)
Time: 07:34:34
(UTC+02:00)

ISS - Pass Details

Date: 25 May 2023
Orbit: 411 x 418 km, 51.6° (Epoch: 07 June)

Event Time Altitude Azimuth Distance (km) Brightness Sun altitude
Rises 21:56:12 0° 287° (WNW) 2,359 1.2 -8.2°
Reaches altitude 10° 21:58:19 10° 284° (WNW) 1,496 0.0 -8.5°
Maximum altitude 22:01:38 63° 203° (SSW) 472 -3.6 -8.8°
Enters shadow 22:04:38 12° 123° (ESE) 1,364 -1.8 -9.1°
